Hourly Data Report for October 11, 2016

All times are specified in Local Standard Time (LST). Add 1 hour to adjust for Daylight Saving Time where and when it is observed.

BATHURST A
NEW BRUNSWICK

47°37'47.000" N
65°44'20.000" W
58.80 m
8100505
71574
ZBF

Download Data

Hourly Data (October 2016)
Hourly Data Report for October 11, 2016
Temp Definition
°C
Dew Point Temp Definition
°C
Rel Hum Definition
%
Wind Dir Definition
10's deg

Wind Spd Definition
km/h
Visibility Definition
km
Stn Press Definition
kPa
Hmdx Definition


Wind Chill Definition


Weather Definition


TIME
00:00 Legend Double Dagger 3.8 -1.0 71 30 10 24.1 101.51     LegendNANA
01:00 Legend Double Dagger 3.3 -1.3 72 30 10 24.1 101.54     LegendNANA
02:00 Legend Double Dagger 3.2 -1.4 72 31 16 24.1 101.59     Clear
03:00 Legend Double Dagger 1.9 -1.5 78 27 12 24.1 101.67     LegendNANA
04:00 Legend Double Dagger 1.6 -1.8 78 29 13 24.1 101.74     LegendNANA
05:00 Legend Double Dagger 1.0 -1.9 81 29 5 24.1 101.79     Clear
06:00 Legend Double Dagger 1.0 -1.9 81 29 9 24.1 101.90     LegendNANA
07:00 Legend Double Dagger 1.8 -1.8 77 30 11 24.1 101.93     LegendNANA
08:00 Legend Double Dagger 3.9 -1.7 67 30 9 24.1 102.00     Clear
09:00 Legend Double Dagger 6.8 -0.9 58 24 5 24.1 102.03     LegendNANA
10:00 Legend Double Dagger 7.2 -1.5 54 28 8 24.1 102.06     LegendNANA
11:00 Legend Double Dagger 8.8 -0.5 52 17 3 24.1 102.05     Mainly Clear
12:00 Legend Double Dagger 12.0 -0.5 42 26 6 24.1 101.99     LegendNANA
13:00 Legend Double Dagger 13.6 -0.4 38 25 8 24.1 101.93     LegendNANA
14:00 Legend Double Dagger 16.0 -5.1 23 27 17 24.1 101.87     Clear
15:00 Legend Double Dagger 16.8 -2.7 26 26 3 24.1 101.81     LegendNANA
16:00 Legend Double Dagger 13.5 3.1 49 6 9 24.1 101.82     LegendNANA
17:00 Legend Double Dagger 12.3 3.6 55 4 5 24.1 101.85     Clear
18:00 Legend Double Dagger 8.9 3.6 69 36 1 24.1 101.86     LegendNANA
19:00 Legend Double Dagger 5.4 2.6 82 36 2 24.1 101.88     LegendNANA
20:00 Legend Double Dagger 4.7 3.1 89 24 6 24.1 101.87     Clear
21:00 Legend Double Dagger 4.2 2.6 89 36 2 24.1 101.88     LegendNANA
22:00 Legend Double Dagger 3.5 1.4 86 22 5 24.1 101.89     LegendNANA
23:00 Legend Double Dagger 2.6 0.8 88   0 24.1 101.87     Clear

Notes on Data Quality.

Legend

  • E = Estimated
  • M = Missing
  • NA = Not Available
  • ‡ = Partner data that is not subject to review by the National Climate Archives
Date modified: